Tracking 17884 objects as of 3-December-2016
HD Live streaming from Space Station
objects crossing your sky now

ATLAS CENTAUR R/B

Track ATLAS CENTAUR R/B now!


NORAD ID: 10976
Int'l Code: 1978-068B
Perigee: 652.4 km
Apogee: 36,204.5 km
Inclination: 21.6 °
Period: 647.8 minutes
Semi major axis: 24799 km
RCS: 16.8333 m2 (large)
Launch date: June 29, 1978
Source: United States (US)
Launch site: AIR FORCE EASTERN TEST RANGE (AFETR)

Note: This is a ROCKET BODY
Your satellite tracking list
Your tracking list is empty





NASA's NSSDC Master Catalog

Two Line Element Set (TLE):
1 10976U 78068B   16336.99125624 -.00000146  00000-0  77083-4 0  9990
2 10976  21.6231 271.1980 7167910 136.5568 352.5589  2.22304597311863
Source of the keplerian elements: AFSPC